Change the Weather History Date:

Tuesday, December 4, 2012

  Actual Average Record
Temperature  
Mean Temperature 72 °F -  
Max Temperature 77 °F - - ()
Min Temperature 66 °F - - ()
Cooling Degree Days 6    
Growing Degree Days 22 (Base 50)    
Moisture  
Dew Point 70 °F    
Average Humidity 87    
Maximum Humidity 94    
Minimum Humidity 73    
Precipitation  
Precipitation 0.00 in - - ()
Sea Level Pressure  
Sea Level Pressure 30.07 in    
Wind  
Wind Speed 12 mph (SE)    
Max Wind Speed 21 mph    
Max Gust Speed 21 mph    
Visibility 5 miles    
Events Fog    
T = Trace of Precipitation, MM = Missing Value Source: NWS Daily Summary

Daily Weather History Graph

Daily Weather History Graph

Search for Another Location

Airport or City:

Trip Planner

Search our weather history database for the weather conditions in past years. The results will help you decide how hot, cold, wet, or windy it might be!

Date:

Astronomy

Dec. 04, 2012 Rise Set
Actual Time 7:02 AM CST 5:34 PM CST
Civil Twilight 6:36 AM CST 5:59 PM CST
Nautical Twilight 6:08 AM CST 6:28 PM CST
Astronomical Twilight 5:39 AM CST 6:56 PM CST
Moon 11:01 PM CST (12/4) 11:15 AM CST (12/4)
Length of Visible Light 11h 22m
Length of Day
10h 32m
Waning Gibbous, 69% of the Moon is Illuminated
Dec 4
Waning Gibbous
Dec 6
Last Quarter
Dec 13
New
Dec 19
First Quarter
Dec 28
Full

Hourly Weather History & Observations

Time (CST) Temp. Dew Point Humidity Pressure Visibility Wind Dir Wind Speed Gust Speed Precip Events Conditions
12:15 AM 75.2 °F 69.8 °F 83% 30.02 in 6.0 mi SE 16.1 mph - N/A   Haze
12:35 AM 75.2 °F 69.8 °F 83% 30.01 in 6.0 mi SE 17.3 mph - N/A   Haze
12:55 AM 75.2 °F 69.8 °F 83% 30.01 in 6.0 mi SE 18.4 mph - N/A   Haze
1:15 AM 75.2 °F 69.8 °F 83% 30.01 in 6.0 mi SE 17.3 mph - N/A   Haze
1:35 AM 75.2 °F 69.8 °F 83% 30.01 in 6.0 mi SE 17.3 mph - N/A   Haze
1:55 AM 75.2 °F 69.8 °F 83% 30.02 in 5.0 mi SE 15.0 mph - N/A   Haze
2:15 AM 75.2 °F 69.8 °F 83% 30.02 in 6.0 mi SE 13.8 mph - N/A   Haze
2:35 AM 75.2 °F 69.8 °F 83% 30.01 in 5.0 mi SE 13.8 mph - N/A   Clear
2:55 AM 73.4 °F 69.8 °F 88% 30.02 in 5.0 mi SE 12.7 mph - N/A   Clear
3:15 AM 73.4 °F 69.8 °F 88% 30.02 in 5.0 mi SSE 12.7 mph - N/A   Clear
3:35 AM 73.4 °F 69.8 °F 88% 30.02 in 5.0 mi SSE 12.7 mph - N/A   Clear
3:55 AM 73.4 °F 69.8 °F 88% 30.02 in 6.0 mi SSE 11.5 mph - N/A   Clear
4:15 AM 73.4 °F 69.8 °F 88% 30.02 in 6.0 mi SSE 11.5 mph - N/A   Clear
4:35 AM 73.4 °F 69.8 °F 88% 30.02 in 5.0 mi SSE 10.4 mph - N/A   Clear
4:55 AM 73.4 °F 69.8 °F 88% 30.03 in 6.0 mi SSE 8.1 mph - N/A   Clear
5:15 AM 73.4 °F 69.8 °F 88% 30.04 in 6.0 mi SE 8.1 mph - N/A   Clear
5:35 AM 73.4 °F 69.8 °F 88% 30.04 in 6.0 mi SE 9.2 mph - N/A   Clear
5:55 AM 73.4 °F 69.8 °F 88% 30.04 in 6.0 mi SSE 9.2 mph - N/A   Clear
6:15 AM 73.4 °F 69.8 °F 88% 30.05 in 6.0 mi SE 9.2 mph - N/A   Clear
6:35 AM 73.4 °F 69.8 °F 88% 30.05 in 5.0 mi SE 9.2 mph - N/A   Clear
6:55 AM 73.4 °F 71.6 °F 94% 30.05 in 5.0 mi SE 11.5 mph - N/A   Clear
7:15 AM 73.4 °F 71.6 °F 94% 30.06 in 4.0 mi SE 12.7 mph - N/A   Clear
7:35 AM 73.4 °F 71.6 °F 94% 30.07 in 4.0 mi SE 11.5 mph - N/A   Clear
7:55 AM 75.2 °F 71.6 °F 89% 30.07 in 4.0 mi SE 12.7 mph - N/A   Clear
8:15 AM 75.2 °F 71.6 °F 89% 30.08 in 4.0 mi SE 10.4 mph - N/A   Clear
8:35 AM 75.2 °F 71.6 °F 89% 30.09 in 4.0 mi SE 12.7 mph - N/A   Scattered Clouds
8:55 AM 75.2 °F 71.6 °F 89% 30.10 in 4.0 mi SE 11.5 mph - N/A   Mostly Cloudy
9:15 AM 75.2 °F 71.6 °F 89% 30.11 in 5.0 mi SE 11.5 mph - N/A   Scattered Clouds
9:35 AM 75.2 °F 71.6 °F 89% 30.11 in 5.0 mi SE 12.7 mph - N/A   Partly Cloudy
9:55 AM 75.2 °F 71.6 °F 89% 30.11 in 5.0 mi SSE 12.7 mph - N/A   Scattered Clouds
10:15 AM 75.2 °F 71.6 °F 89% 30.12 in 4.0 mi SE 9.2 mph - N/A   Mostly Cloudy
10:35 AM 75.2 °F 71.6 °F 89% 30.12 in - SSE 9.2 mph 16.1 mph N/A   Mostly Cloudy
10:55 AM 75.2 °F 71.6 °F 89% 30.12 in 4.0 mi SSE 9.2 mph - N/A   Mostly Cloudy
11:15 AM 75.2 °F 71.6 °F 89% 30.12 in 4.0 mi SSE 5.8 mph - N/A   Mostly Cloudy
11:35 AM 75.2 °F 71.6 °F 89% 30.12 in 5.0 mi SSE 5.8 mph - N/A   Scattered Clouds
11:55 AM 75.2 °F 71.6 °F 89% 30.11 in 5.0 mi SSE 4.6 mph - N/A   Scattered Clouds
12:15 PM 75.2 °F 71.6 °F 89% 30.10 in 5.0 mi SE 4.6 mph - N/A   Haze
12:35 PM 75.2 °F 71.6 °F 89% 30.10 in 5.0 mi East 3.5 mph - N/A   Haze
12:55 PM 75.2 °F 71.6 °F 89% 30.09 in 5.0 mi Calm Calm - N/A   Haze
1:15 PM 75.2 °F 71.6 °F 89% 30.08 in 6.0 mi Calm Calm - N/A   Haze
1:30 PM 75.2 °F 71.6 °F 89% 30.07 in 5.0 mi SW 6.9 mph - N/A   Haze
1:55 PM 75.2 °F 69.8 °F 83% 30.06 in 2.0 mi South 9.2 mph - N/A   Haze
2:15 PM 73.4 °F 69.8 °F 88% 30.05 in 4.0 mi South 15.0 mph - N/A   Haze
2:35 PM 75.2 °F 69.8 °F 83% 30.04 in 4.0 mi SE 12.7 mph - N/A   Haze
2:55 PM 75.2 °F 69.8 °F 83% 30.05 in 6.0 mi SE 10.4 mph - N/A   Haze
3:15 PM 75.2 °F 69.8 °F 83% 30.05 in 6.0 mi ESE 8.1 mph - N/A   Haze
3:35 PM 73.4 °F 68.0 °F 83% 30.06 in 5.0 mi NE 20.7 mph - N/A   Haze
3:55 PM 75.2 °F 68.0 °F 78% 30.06 in 7.0 mi East 13.8 mph - N/A   Mostly Cloudy
4:15 PM 75.2 °F 66.2 °F 73% 30.05 in 7.0 mi East 13.8 mph - N/A   Scattered Clouds
4:35 PM 77.0 °F 68.0 °F 74% 30.05 in 7.0 mi SE 11.5 mph - N/A   Partly Cloudy
4:55 PM 77.0 °F 68.0 °F 74% 30.05 in 8.0 mi SE 11.5 mph - N/A   Partly Cloudy
5:15 PM 75.2 °F 69.8 °F 83% 30.06 in 7.0 mi ESE 10.4 mph - N/A   Clear
5:35 PM 75.2 °F 69.8 °F 83% 30.06 in 5.0 mi SE 12.7 mph - N/A   Haze
5:55 PM 75.2 °F 69.8 °F 83% 30.07 in 6.0 mi ESE 11.5 mph - N/A   Haze
6:15 PM 75.2 °F 71.6 °F 89% 30.07 in 6.0 mi ESE 10.4 mph - N/A   Haze
6:35 PM 75.2 °F 71.6 °F 89% 30.08 in 6.0 mi East 12.7 mph - N/A   Clear
6:55 PM 75.2 °F 71.6 °F 89% 30.09 in 6.0 mi East 11.5 mph - N/A   Clear
7:15 PM 75.2 °F 71.6 °F 89% 30.09 in 5.0 mi ESE 12.7 mph - N/A   Clear
7:35 PM 75.2 °F 71.6 °F 89% 30.09 in 5.0 mi ESE 11.5 mph - N/A   Clear
7:55 PM 75.2 °F 71.6 °F 89% 30.09 in 5.0 mi SE 11.5 mph - N/A   Clear
8:15 PM 75.2 °F 71.6 °F 89% 30.09 in 6.0 mi SE 12.7 mph - N/A   Clear
8:35 PM 75.2 °F 71.6 °F 89% 30.08 in 5.0 mi SSE 15.0 mph - N/A   Clear
8:55 PM 75.2 °F 71.6 °F 89% 30.09 in 6.0 mi SSE 12.7 mph - N/A   Clear
9:15 PM 73.4 °F 71.6 °F 94% 30.09 in 5.0 mi SSE 13.8 mph - N/A   Partly Cloudy
9:35 PM 73.4 °F 71.6 °F 94% 30.10 in 6.0 mi South 12.7 mph - N/A   Mostly Cloudy
9:55 PM 73.4 °F 71.6 °F 94% 30.09 in 5.0 mi South 13.8 mph - N/A   Overcast
10:15 PM 73.4 °F 71.6 °F 94% 30.11 in 5.0 mi South 10.4 mph - N/A   Overcast
10:30 PM 68.0 °F 64.4 °F 88% 30.14 in 4.0 mi North 9.2 mph 20.7 mph N/A   Mostly Cloudy
10:55 PM 66.2 °F 64.4 °F 94% 30.11 in 0.2 mi North 12.7 mph 19.6 mph N/A Fog Fog
11:15 PM 68.0 °F 64.4 °F 88% 30.11 in 2.0 mi NW 16.1 mph - N/A   Mostly Cloudy
11:35 PM 68.0 °F 66.2 °F 94% 30.10 in 3.0 mi NW 9.2 mph - N/A   Overcast
11:55 PM 69.8 °F 66.2 °F 88% 30.11 in 5.0 mi West 5.8 mph 12.7 mph N/A   Mostly Cloudy